| time (UTC) | temp F | wind direction | speed knots | gust knots | rain 1hr in | rain 24hr in | rain mn in | humidity % | barometer mb |
| 20260507060745 | 52 | 0.0 | 2.6 | 0.00 | 0.14 | 0.02 | 90 | 1002.2 | |
| 20260507055747 | 53 | 0.0 | 0.0 | 0.00 | 0.14 | 0.02 | 90 | 1002.3 | |
| 20260507054747 | 53 | 0.0 | 0.0 | 0.00 | 0.14 | 0.02 | 90 | 1002.3 | |
| 20260507053747 | 53 | 0.0 | 0.0 | 0.00 | 0.14 | 0.02 | 90 | 1002.5 | |
| 20260507052747 | 53 | 0.0 | 0.0 | 0.00 | 0.14 | 0.02 | 90 | 1002.5 | |
| 20260507051747 | 54 | 0.0 | 0.0 | 0.00 | 0.14 | 0.02 | 90 | 1002.5 | |
| 20260507050747 | 54 | 0.0 | 0.0 | 0.00 | 0.14 | 0.02 | 89 | 1002.4 | |
| 20260507045747 | 54 | 0.0 | 0.9 | 0.02 | 0.14 | 0.02 | 89 | 1002.5 | |
| 20260507044747 | 54 | 0.0 | 0.0 | 0.02 | 0.14 | 0.02 | 89 | 1002.5 | |
| 20260507043807 | 55 | 0.0 | 0.0 | 0.02 | 0.14 | 0.02 | 89 | 1002.2 | |
| 20260507042747 | 55 | 0.0 | 0.0 | 0.02 | 0.14 | 0.02 | 89 | 1002.3 | |
| 20260507041747 | 55 | 0.0 | 0.0 | 0.02 | 0.14 | 0.02 | 88 | 1002.3 | |
| 20260507040747 | 56 | 0.0 | 1.7 | 0.02 | 0.14 | 0.02 | 88 | 1002.5 | |
| 20260507035746 | 57 | 203 | 0.9 | 1.7 | 0.00 | 0.12 | 0.12 | 89 | 1002.2 |
| 20260507034806 | 58 | 0.0 | 1.7 | 0.00 | 0.12 | 0.12 | 90 | 1002.2 | |
| 20260507033747 | 58 | 0.0 | 0.0 | 0.00 | 0.12 | 0.12 | 90 | 1001.9 | |
| 20260507032747 | 58 | 0.0 | 1.7 | 0.00 | 0.12 | 0.12 | 90 | 1001.5 | |
| 20260507031746 | 58 | 0.0 | 0.0 | 0.00 | 0.12 | 0.12 | 90 | 1001.5 | |
| 20260507030746 | 58 | 180 | 0.9 | 1.7 | 0.00 | 0.12 | 0.12 | 90 | 1001.3 |
| 20260507025746 | 59 | 180 | 0.9 | 1.7 | 0.00 | 0.12 | 0.12 | 91 | 1001.4 |
| 20260507024746 | 58 | 203 | 0.9 | 3.5 | 0.00 | 0.12 | 0.12 | 91 | 1001.4 |
| 20260507023746 | 58 | 0.0 | 0.0 | 0.00 | 0.12 | 0.12 | 90 | 1001.3 | |
| 20260507022806 | 58 | 203 | 0.9 | 2.6 | 0.00 | 0.12 | 0.12 | 90 | 1001.2 |
| 20260507021746 | 58 | 0.0 | 2.6 | 0.00 | 0.12 | 0.12 | 90 | 1001.2 | |
| 20260507020746 | 58 | 0.0 | 0.9 | 0.00 | 0.12 | 0.12 | 90 | 1001.1 | |
| 20260507015746 | 58 | 0.0 | 2.6 | 0.00 | 0.12 | 0.12 | 90 | 1001.1 | |
| 20260507014746 | 58 | 0.0 | 1.7 | 0.00 | 0.12 | 0.12 | 90 | 1001.1 | |
| 20260507013746 | 58 | 0.0 | 2.6 | 0.00 | 0.12 | 0.12 | 90 | 1001.1 | |
| 20260507012746 | 58 | 225 | 0.9 | 1.7 | 0.00 | 0.12 | 0.12 | 90 | 1001.1 |
| 20260507011806 | 58 | 225 | 0.9 | 5.2 | 0.00 | 0.12 | 0.12 | 90 | 1001.1 |
| 20260507010746 | 58 | 203 | 0.9 | 3.5 | 0.00 | 0.12 | 0.12 | 90 | 1001.2 |
| 20260507005746 | 58 | 203 | 0.9 | 3.5 | 0.00 | 0.12 | 0.12 | 90 | 1001.2 |
| 20260507004746 | 58 | 203 | 0.9 | 2.6 | 0.00 | 0.12 | 0.12 | 90 | 1001.2 |
| 20260507003746 | 58 | 225 | 0.9 | 2.6 | 0.00 | 0.12 | 0.12 | 90 | 1001.2 |
| 20260507002746 | 58 | 203 | 0.9 | 2.6 | 0.00 | 0.12 | 0.12 | 90 | 1001.0 |
| 20260507001746 | 58 | 203 | 0.9 | 2.6 | 0.01 | 0.12 | 0.12 | 90 | 1001.0 |
| 20260507000746 | 58 | 203 | 0.9 | 4.3 | 0.01 | 0.12 | 0.12 | 90 | 1001.0 |
| 20260506235806 | 58 | 0.0 | 1.7 | 0.03 | 0.12 | 0.12 | 90 | 1000.9 | |
| 20260506234746 | 58 | 203 | 0.9 | 4.3 | 0.04 | 0.12 | 0.12 | 90 | 1000.9 |
| 20260506233746 | 58 | 225 | 0.9 | 2.6 | 0.05 | 0.12 | 0.12 | 89 | 1000.9 |
| 20260506232745 | 59 | 0.0 | 2.6 | 0.05 | 0.12 | 0.12 | 89 | 1000.8 | |
| 20260506231745 | 59 | 0.0 | 2.6 | 0.05 | 0.11 | 0.11 | 89 | 1000.7 | |
| 20260506230806 | 59 | 225 | 0.9 | 2.6 | 0.05 | 0.11 | 0.11 | 89 | 1000.9 |
| 20260506225746 | 59 | 203 | 0.9 | 1.7 | 0.03 | 0.09 | 0.09 | 89 | 1001.0 |
| 20260506224746 | 59 | 158 | 0.9 | 2.6 | 0.02 | 0.08 | 0.08 | 88 | 1001.0 |
| 20260506223745 | 59 | 293 | 0.9 | 6.1 | 0.01 | 0.07 | 0.07 | 88 | 1001.0 |
| 20260506222745 | 59 | 0.0 | 0.9 | 0.01 | 0.07 | 0.07 | 88 | 1001.2 | |
| 20260506221745 | 59 | 203 | 0.9 | 2.6 | 0.00 | 0.06 | 0.06 | 87 | 1001.2 |
| 20260506220746 | 59 | 248 | 0.9 | 5.2 | 0.00 | 0.06 | 0.06 | 87 | 1001.3 |
| 20260506215745 | 59 | 270 | 0.9 | 4.3 | 0.00 | 0.06 | 0.06 | 87 | 1001.4 |
| 20260506214745 | 59 | 180 | 0.9 | 4.3 | 0.01 | 0.06 | 0.06 | 87 | 1001.4 |
| 20260506213745 | 59 | 158 | 0.9 | 2.6 | 0.01 | 0.06 | 0.06 | 86 | 1001.5 |
| 20260506212745 | 59 | 158 | 0.9 | 5.2 | 0.01 | 0.06 | 0.06 | 86 | 1001.7 |
| 20260506211745 | 59 | 203 | 0.9 | 7.0 | 0.02 | 0.06 | 0.06 | 86 | 1001.7 |
| 20260506210745 | 59 | 225 | 0.9 | 2.6 | 0.02 | 0.06 | 0.06 | 86 | 1001.9 |
| 20260506205745 | 59 | 225 | 0.9 | 4.3 | 0.03 | 0.06 | 0.06 | 86 | 1002.0 |
| 20260506204745 | 59 | 180 | 0.9 | 3.5 | 0.02 | 0.05 | 0.05 | 85 | 1002.0 |
| 20260506203745 | 60 | 180 | 0.9 | 5.2 | 0.02 | 0.05 | 0.05 | 84 | 1002.0 |
| 20260506202747 | 60 | 248 | 1.7 | 4.3 | 0.02 | 0.05 | 0.05 | 84 | 1002.0 |
| 20260506201747 | 60 | 180 | 1.7 | 4.3 | 0.02 | 0.04 | 0.04 | 83 | 1002.0 |
| 20260506200747 | 61 | 203 | 1.7 | 5.2 | 0.03 | 0.04 | 0.04 | 82 | 1002.1 |
| 20260506195747 | 61 | 225 | 0.9 | 4.3 | 0.02 | 0.03 | 0.03 | 82 | 1002.1 |
| 20260506194747 | 62 | 180 | 0.9 | 1.7 | 0.03 | 0.03 | 0.03 | 82 | 1002.1 |
| 20260506193747 | 62 | 0.0 | 1.7 | 0.03 | 0.03 | 0.03 | 81 | 1002.0 | |
| 20260506192747 | 62 | 0.0 | 1.7 | 0.03 | 0.03 | 0.03 | 79 | 1002.0 | |
| 20260506191807 | 63 | 248 | 0.9 | 4.3 | 0.02 | 0.02 | 0.02 | 78 | 1002.0 |
| 20260506190747 | 64 | 203 | 0.9 | 2.6 | 0.01 | 0.01 | 0.01 | 76 | 1002.1 |
| 20260506185747 | 65 | 0.0 | 0.9 | 0.01 | 0.01 | 0.01 | 71 | 1002.3 | |
| 20260506184747 | 66 | 203 | 2.6 | 8.7 | 0.00 | 0.00 | 0.00 | 65 | 1002.3 |
| 20260506183747 | 67 | 225 | 2.6 | 8.7 | 0.00 | 0.00 | 0.00 | 60 | 1002.4 |
| 20260506182747 | 68 | 203 | 1.7 | 6.1 | 0.00 | 0.00 | 0.00 | 58 | 1002.4 |
| 20260506181747 | 69 | 248 | 2.6 | 6.1 | 0.00 | 0.00 | 0.00 | 52 | 1002.4 |
| 20260506180747 | 70 | 180 | 2.6 | 9.6 | 0.00 | 0.00 | 0.00 | 48 | 1002.4 |
| 20260506175747 | 71 | 203 | 1.7 | 4.3 | 0.00 | 0.00 | 0.00 | 47 | 1002.5 |
| 20260506174807 | 72 | 225 | 2.6 | 7.0 | 0.00 | 0.00 | 0.00 | 45 | 1002.5 |
| 20260506173747 | 72 | 203 | 1.7 | 10.4 | 0.00 | 0.00 | 0.00 | 43 | 1002.4 |
| 20260506172807 | 72 | 225 | 1.7 | 5.2 | 0.00 | 0.00 | 0.00 | 43 | 1002.4 |
| 20260506171747 | 72 | 225 | 3.5 | 6.1 | 0.00 | 0.00 | 0.00 | 42 | 1002.4 |
| 20260506170746 | 72 | 225 | 1.7 | 5.2 | 0.00 | 0.00 | 0.00 | 44 | 1002.6 |
| 20260506165746 | 72 | 225 | 1.7 | 7.0 | 0.00 | 0.00 | 0.00 | 47 | 1002.9 |
| 20260506164747 | 71 | 248 | 0.9 | 4.3 | 0.00 | 0.00 | 0.00 | 47 | 1002.9 |
| 20260506163746 | 70 | 203 | 1.7 | 5.2 | 0.00 | 0.00 | 0.00 | 48 | 1003.1 |
| 20260506162746 | 70 | 180 | 1.7 | 5.2 | 0.00 | 0.00 | 0.00 | 48 | 1003.3 |
| 20260506161747 | 70 | 203 | 1.7 | 5.2 | 0.00 | 0.00 | 0.00 | 48 | 1003.3 |
| 20260506160806 | 70 | 158 | 1.7 | 5.2 | 0.00 | 0.00 | 0.00 | 49 | 1003.5 |
| 20260506155747 | 70 | 203 | 1.7 | 6.1 | 0.00 | 0.00 | 0.00 | 48 | 1003.8 |
| 20260506154746 | 70 | 203 | 1.7 | 5.2 | 0.00 | 0.00 | 0.00 | 49 | 1003.8 |
| 20260506153746 | 70 | 203 | 1.7 | 4.3 | 0.00 | 0.00 | 0.00 | 51 | 1004.0 |
| 20260506152746 | 70 | 225 | 0.9 | 2.6 | 0.00 | 0.00 | 0.00 | 52 | 1004.2 |
| 20260506151747 | 69 | 203 | 1.7 | 6.1 | 0.00 | 0.00 | 0.00 | 51 | 1004.2 |
| 20260506150746 | 69 | 203 | 1.7 | 5.2 | 0.00 | 0.00 | 0.00 | 52 | 1004.3 |
| 20260506145746 | 69 | 180 | 0.9 | 4.3 | 0.00 | 0.00 | 0.00 | 53 | 1004.6 |
| 20260506144746 | 68 | 225 | 2.6 | 7.0 | 0.00 | 0.00 | 0.00 | 54 | 1004.6 |
| 20260506143806 | 68 | 225 | 2.6 | 7.0 | 0.00 | 0.00 | 0.00 | 54 | 1004.5 |
| 20260506140746 | 68 | 225 | 1.7 | 8.7 | 0.00 | 0.00 | 0.00 | 54 | 1004.2 |
| 20260506135746 | 68 | 203 | 1.7 | 5.2 | 0.00 | 0.00 | 0.00 | 57 | 1004.5 |
| 20260506134746 | 67 | 248 | 1.7 | 5.2 | 0.00 | 0.00 | 0.00 | 59 | 1004.4 |
| 20260506133746 | 66 | 248 | 0.9 | 4.3 | 0.00 | 0.00 | 0.00 | 61 | 1004.8 |
| 20260506132746 | 65 | 225 | 0.9 | 4.3 | 0.00 | 0.00 | 0.00 | 62 | 1005.0 |
| 20260506131746 | 65 | 158 | 0.9 | 3.5 | 0.00 | 0.00 | 0.00 | 62 | 1005.0 |
| 20260506130806 | 65 | 158 | 0.9 | 3.5 | 0.00 | 0.00 | 0.00 | 63 | 1005.0 |
| 20260506125746 | 64 | 180 | 0.9 | 2.6 | 0.00 | 0.00 | 0.00 | 64 | 1005.0 |
| 20260506124746 | 64 | 180 | 1.7 | 4.3 | 0.00 | 0.00 | 0.00 | 65 | 1005.0 |
| 20260506123806 | 63 | 113 | 1.7 | 5.2 | 0.00 | 0.00 | 0.00 | 65 | 1005.0 |
| 20260506122745 | 63 | 203 | 0.9 | 6.1 | 0.00 | 0.00 | 0.00 | 67 | 1005.1 |
| 20260506121805 | 62 | 180 | 2.6 | 5.2 | 0.00 | 0.00 | 0.00 | 67 | 1005.1 |
| 20260506115746 | 61 | 158 | 0.9 | 2.6 | 0.00 | 0.00 | 0.00 | 69 | 1005.1 |
| 20260506114746 | 61 | 270 | 0.9 | 4.3 | 0.00 | 0.00 | 0.00 | 70 | 1005.1 |
| 20260506113805 | 61 | 180 | 1.7 | 5.2 | 0.00 | 0.00 | 0.00 | 70 | 1005.2 |
| 20260506112745 | 61 | 180 | 1.7 | 3.5 | 0.00 | 0.00 | 0.00 | 70 | 1005.4 |
| 20260506111805 | 61 | 203 | 1.7 | 4.3 | 0.00 | 0.00 | 0.00 | 70 | 1005.4 |
| 20260506110745 | 61 | 180 | 1.7 | 5.2 | 0.00 | 0.00 | 0.00 | 70 | 1005.1 |
| 20260506105745 | 60 | 158 | 1.7 | 4.3 | 0.00 | 0.00 | 0.00 | 71 | 1005.3 |
| 20260506104805 | 60 | 158 | 0.9 | 2.6 | 0.00 | 0.00 | 0.00 | 72 | 1005.3 |
| 20260506103745 | 59 | 248 | 0.9 | 5.2 | 0.00 | 0.00 | 0.00 | 73 | 1005.1 |
| 20260506102745 | 59 | 248 | 0.9 | 5.2 | 0.00 | 0.00 | 0.00 | 72 | 1005.2 |
| 20260506101805 | 59 | 158 | 0.9 | 5.2 | 0.00 | 0.00 | 0.00 | 72 | 1005.2 |
| 20260506100745 | 59 | 270 | 0.9 | 3.5 | 0.00 | 0.00 | 0.00 | 72 | 1005.0 |
| 20260506095745 | 59 | 248 | 0.9 | 4.3 | 0.00 | 0.00 | 0.00 | 71 | 1005.0 |
| 20260506094745 | 59 | 248 | 0.9 | 5.2 | 0.00 | 0.00 | 0.00 | 71 | 1005.0 |
| 20260506093747 | 59 | 225 | 0.9 | 4.3 | 0.00 | 0.00 | 0.00 | 71 | 1004.9 |
| 20260506092807 | 59 | 203 | 0.9 | 2.6 | 0.00 | 0.00 | 0.00 | 70 | 1005.0 |
| 20260506091747 | 60 | 248 | 0.9 | 3.5 | 0.00 | 0.00 | 0.00 | 70 | 1005.0 |
| 20260506090747 | 60 | 248 | 0.9 | 2.6 | 0.00 | 0.00 | 0.00 | 69 | 1004.9 |
| 20260506085747 | 60 | 158 | 0.9 | 3.5 | 0.00 | 0.00 | 0.00 | 69 | 1005.1 |
| 20260506084747 | 60 | 180 | 0.9 | 1.7 | 0.00 | 0.00 | 0.00 | 68 | 1005.1 |
| 20260506083747 | 60 | 0.0 | 0.9 | 0.00 | 0.00 | 0.00 | 68 | 1005.0 | |
| 20260506082807 | 61 | 225 | 0.9 | 2.6 | 0.00 | 0.00 | 0.00 | 67 | 1005.0 |
| 20260506081747 | 61 | 270 | 0.9 | 3.5 | 0.00 | 0.00 | 0.00 | 66 | 1005.0 |
| 20260506080807 | 61 | 248 | 0.9 | 1.7 | 0.00 | 0.00 | 0.00 | 65 | 1005.0 |
| 20260506072746 | 62 | 225 | 0.9 | 2.6 | 0.00 | 0.00 | 0.00 | 63 | 1004.7 |
| 20260506071747 | 62 | 203 | 0.9 | 2.6 | 0.00 | 0.00 | 0.00 | 62 | 1004.7 |
| 20260506070807 | 63 | 203 | 1.7 | 5.2 | 0.00 | 0.00 | 0.00 | 61 | 1004.6 |
| 20260506061746 | 63 | 203 | 1.7 | 4.3 | 0.00 | 0.00 | 0.00 | 58 | 1004.5 |